Regional Weather Roundup
Issued by NWS Goodland, KS

Home | Current Version | Previous Version | Text Only | Print | Product List | Glossary Off
Versions: 1 2 3 4 5 6 7 8 9 10 11 12 13 14 15 16 17 18 19 20 21 22 23 24 25 26 27 28 29 30 31 32 33 34 35 36 37 38 39 40 41 42 43 44 45 46 47 48 49 50

000
ASUS43 KGLD 300059
RWRGLD

GOODLAND FORECAST AREA HOURLY WEATHER ROUNDUP
NATIONAL WEATHER SERVICE GOODLAND KS
700 PM MDT TUE JUL 29 2014

...OFFICIAL OBSERVATIONS...

CITY           SKY/WX    TMP DP  RH WIND       PRES   REMARKS
GOODLAND KS    CLOUDY    78  60  53 SE14      30.10S
HILL CITY KS   MOCLDY    81  57  43 E16G22    30.07S
IMPERIAL NEB   CLOUDY    78  58  49 E14       30.11S
MCCOOK NEB     MOCLDY    78  58  49 E17G26    30.10S
AKRON CO       CLOUDY    63  61  93 NW21G28   30.17R
BURLINGTON CO  LGT RAIN  71  64  78 S14       30.12S
LIMON CO       LGT RAIN  61  60  97 SE8       30.20S
$$

...UNOFFICIAL OBSERVATIONS...

CITY           SKY/WX    TMP DP  RH WIND       PRES   REMARKS
COLBY KS       MOCLDY    81  63  54 SE24G33   30.11R
GOVE KS          N/A     82  32  16 MISG        N/A
NORTON KS      CLEAR     79  50  36 E13G18    30.08F
WAKEENEY KS      N/A     83  52  34 MISG        N/A
TRENTON NEB      N/A     79  32  18 E16         N/A
KIT CARSON CO    N/A     70  65  85 N7          N/A
YUMA CO          N/A     70  59  67 NE18        N/A
$$


USA.gov is the U.S. government's official web portal to all federal, state and local government web resources and services.